Eau Claire, WI

12:18 AM CST on February 27, 2017 (GMT -0600)
Chippewa Valley Regional

Weather History for KEAU - June, 2013

Change the Weather History Date:

Tuesday, June 18, 2013

  Actual Average Record
Temperature  
Mean Temperature 66 °F 68 °F  
Max Temperature 75 °F 80 °F 96 °F (1995)
Min Temperature 57 °F 56 °F 44 °F (1999)
Degree Days  
Heating Degree Days 0 1  
Month to date heating degree days 63 50  
Since 1 June heating degree days 63 50  
Since 1 July heating degree days 8300 7947  
Cooling Degree Days 1 4  
Month to date cooling degree days 15 53  
Year to date cooling degree days 47 85  
Since 1 June cooling degree days 15 53  
Growing Degree Days 16 (Base 50)    
Moisture  
Dew Point 50 °F    
Average Humidity 59    
Maximum Humidity 86    
Minimum Humidity 31    
Precipitation  
Precipitation 0.00 in 0.14 in 4.74 in (2011)
Month to date precipitation 1.55 2.48  
Year to date precipitation 21.60 12.12  
Snow  
Snow 0.00 in 0.00 in 0.00 in ()
Month to date snowfall 0.0 0.0  
Since 1 June snowfall 0.0 0.0  
Since 1 July snowfall 84.3 46.8  
Snow Depth 0.00 in    
Sea Level Pressure  
Sea Level Pressure 30.06 in    
Wind  
Wind Speed 8 mph (ENE)    
Max Wind Speed 14 mph    
Max Gust Speed 17 mph    
Visibility 10 miles    
Events      
T = Trace of Precipitation, MM = Missing Value Source: NWS Daily Summary

Daily Weather History Graph

Daily Weather History Graph

Search for Another Location

Airport or City:

Trip Planner

Search our weather history database for the weather conditions in past years. The results will help you decide how hot, cold, wet, or windy it might be!

Date:

Astronomy

Jun. 18, 2013 Rise Set
Actual Time 5:19 AM CDT 8:55 PM CDT
Civil Twilight 4:42 AM CDT 9:32 PM CDT
Nautical Twilight 3:52 AM CDT 10:21 PM CDT
Astronomical Twilight 2:47 AM CDT 11:27 PM CDT
Moon 3:30 PM CDT (6/18) 1:39 AM CDT (6/18)
Length of Visible Light 16h 50m
Length of Day
15h 35m
Waxing Gibbous, 71% of the Moon is Illuminated
Jun 18
Waxing Gibbous
Jun 23
Full
Jun 29
Last Quarter
Jul 8
New
Jul 15
First Quarter

Hourly Weather History & Observations

Time (CDT) Temp. Dew Point Humidity Pressure Visibility Wind Dir Wind Speed Gust Speed Precip Events Conditions
12:56 AM 59.0 °F 53.1 °F 81% 30.01 in 10.0 mi NNE 5.8 mph - N/A   Mostly Cloudy
1:03 AM 59.0 °F 53.6 °F 82% 30.01 in 10.0 mi NE 8.1 mph - N/A   Overcast
1:56 AM 59.0 °F 53.1 °F 81% 30.01 in 10.0 mi NE 9.2 mph - N/A   Mostly Cloudy
2:56 AM 59.0 °F 53.1 °F 81% 30.02 in 10.0 mi NE 6.9 mph - N/A   Overcast
3:52 AM 57.2 °F 53.6 °F 88% 30.03 in 10.0 mi NE 4.6 mph - N/A   Scattered Clouds
3:56 AM 57.0 °F 53.1 °F 87% 30.02 in 10.0 mi NE 4.6 mph - N/A   Partly Cloudy
4:16 AM 57.2 °F 53.6 °F 88% 30.03 in 10.0 mi NE 3.5 mph - N/A   Mostly Cloudy
4:56 AM 59.0 °F 54.0 °F 83% 30.04 in 10.0 mi NNE 6.9 mph - N/A   Overcast
5:56 AM 59.0 °F 52.0 °F 78% 30.06 in 10.0 mi East 9.2 mph - N/A   Overcast
6:51 AM 59.0 °F 53.6 °F 82% 30.08 in 10.0 mi ENE 6.9 mph - N/A   Overcast
6:56 AM 59.0 °F 53.1 °F 81% 30.08 in 10.0 mi NE 5.8 mph - N/A   Overcast
7:56 AM 61.0 °F 53.1 °F 75% 30.08 in 10.0 mi ENE 8.1 mph - N/A   Clear
8:22 AM 60.8 °F 53.6 °F 77% 30.09 in 10.0 mi East 8.1 mph - N/A   Mostly Cloudy
8:56 AM 62.1 °F 54.0 °F 75% 30.09 in 10.0 mi ENE 9.2 mph - N/A   Overcast
9:56 AM 62.1 °F 52.0 °F 70% 30.10 in 10.0 mi ENE 11.5 mph - N/A   Overcast
10:56 AM 64.0 °F 50.0 °F 60% 30.10 in 10.0 mi East 10.4 mph - N/A   Overcast
11:05 AM 64.4 °F 46.4 °F 52% 30.11 in 10.0 mi ENE 9.2 mph - N/A   Overcast
11:56 AM 66.9 °F 43.0 °F 42% 30.10 in 10.0 mi Variable 3.5 mph - N/A   Scattered Clouds
12:56 PM 71.1 °F 43.0 °F 36% 30.09 in 10.0 mi ENE 10.4 mph - N/A   Clear
1:56 PM 72.0 °F 41.0 °F 33% 30.08 in 10.0 mi ENE 6.9 mph - N/A   Clear
2:56 PM 73.9 °F 41.0 °F 30% 30.08 in 10.0 mi NE 8.1 mph - N/A   Clear
3:56 PM 73.9 °F 41.0 °F 30% 30.06 in 10.0 mi ENE 8.1 mph - N/A   Clear
4:56 PM 75.0 °F 44.1 °F 33% 30.05 in 10.0 mi NE 6.9 mph - N/A   Clear
5:56 PM 73.9 °F 46.9 °F 38% 30.03 in 10.0 mi Variable 6.9 mph - N/A   Clear
6:56 PM 73.0 °F 48.9 °F 42% 30.03 in 10.0 mi East 9.2 mph - N/A   Clear
7:56 PM 71.1 °F 48.0 °F 44% 30.04 in 10.0 mi SE 8.1 mph - N/A   Clear
8:56 PM 66.9 °F 50.0 °F 54% 30.04 in 10.0 mi East 5.8 mph - N/A   Clear
9:56 PM 64.9 °F 48.9 °F 56% 30.05 in 10.0 mi ESE 5.8 mph - N/A   Clear
10:56 PM 64.9 °F 48.9 °F 56% 30.05 in 10.0 mi SE 9.2 mph - N/A   Clear
11:56 PM 64.0 °F 48.9 °F 58% 30.06 in 10.0 mi SE 9.2 mph - N/A   Overcast